Showing default

OPS 9345 (IDSCS 23), 3288

Orbit data source: Space-Track

OPS 9345 (IDSCS 23), 3288 is a payload satellite owned by SAMSO (US) in GEO that was launched on Thu, 13 Jun 1968 UTC via a TITAN IIIC launch vehicle from the Air Force Eastern Test Range (AFETR). Payload-class satellites include a variety of spacecraft equipped with specific instruments for various scientific and technological missions. These include communications satellites like Starlink; space stations such as the ISS; scientific satellites like the Hubble; Earth observation satellites from companies like Planet Labs, Umbra, and HawkEye 360; GPS; miniature CubeSats for education and research; and military/defense satellites.

Loading next visibility...
Identifier
3288, 1968-050E
Orbit
GEO
Last TLE update
2 days ago
Origin
Manufacturer
Philco-Ford
Mission
Non-operational Defense Communications
Bus & Motor
IDCSP, Unknown motor
Mass
45 kg wet, 45 kg dry
Launch date (UTC)
1968-06-13 (57 years ago)
Launch vehicle
TITAN IIIC
Launch site
Air Force Eastern Test Range (AFETR)
Object type
Payload
Rocket body
Debris
Shape & HBR
Poly, 0.9 m
Radar Cross Section
0.926 m², Small (<0.1 m²)

Expand to show TLE details & history

TLE from 2 days ago
0 OPS 9345 (IDSCS 23)
1 03288U 68050E   25127.61358985 -.00000052  00000-0  00000-0 0  9990
2 03288   6.2642  56.4292 0033795 130.3017  52.3617  1.07477793134886
Epoch: 2025-05-07T14:43Z
Definitive object data (Epoch: 2025-05-07T14:43:34.163Z)
Latitude
-0.33565°
Longitude
152.80136°
Altitude
33,796.401 km
Speed
3.153 km/s
True Right ascension
15h 57m 33s
True Declination
0° 20' 07"
Sunlit
Object was in daylight at TLE epoch
Visualization TLE readout
Latitude
6.06424°
Longitude
74.12793°
Altitude
33,756.924 km
Speed
3.156 km/s
Apparent Right ascension
10h 17m 08s
Apparent Declination
0° 15' 02"
Sunlit
Object is in daylight
Visualization observer readout
Local Sidereal Time
14:40:36
Azimuth
254.157° W
Elevation
18.444°
Doppler factor
1
Orbital elements
Apogee altitude
34,017.373 km
Perigee altitude
33,745.259 km
Semi-major axis
40,259.453 km
Eccentricity
0.0033795
Inclination
6.2642°
RAAN
56.4292°
Arg. of periapsis
130.3017°
True anomaly
52.66916°
Mean anomaly
52.3617°
Eccentric anomaly
52.51535°
Mean motion
0.26868 °/min
BSTAR
Unknown
Orbital period
1339.87 mins
Loading historical data...
3288 neighbors
Loading maneuver chart data...
Loading SW <> Apogee altitude chart data...
Loading historical data...
Loading historical data...
Loading historical data...
Loading historical data...
Loading historical data...
Loading historical data...
Loading historical data...

OPS 9345 (IDSCS 23) Visibility forecast

Observer location: undefined°, undefined°

Span
Click to sort rows by Start time (UTC) header in descending order
Start Az.
Max El. time (UTC)
Max El. Az.
Max El.
End time (UTC)
End Az.
1440 mins2025-05-09 06:31:45.815Z254.141° W2025-05-10 05:56:45.815Z230.458° WSW30.764°2025-05-10 06:31:45.815Z229.16° WSW
|